Regional Weather Roundup
Issued by NWS Midland/Odessa, TX

Skip options and go directly to product.
Home | Oldest Version | Previous Version | Current Version | All | Graphics & Text | Save Text | Print | Product List | Glossary On

Skip product version selection by date and time.   
926
ASUS44 KMAF 201610
RWRMAF
MIDLAND AREA WEATHER ROUNDUP
NATIONAL WEATHER SERVICE MIDLAND TX
1100 AM CDT WED AUG 20 2014

...IN SOUTHWEST TEXAS AND SOUTHEAST NEW MEXICO...

CITY           SKY/WX    TMP DP  RH WIND       PRES   REMARKS
ALPINE         PTSUNNY   76  60  56 SW10      30.14R
ANDREWS        FAIR      85  63  48 SW15      29.98R
ARTESIA        SUNNY     81  57  44 S6        29.96S
BIG SPRING     SUNNY     84  63  48 S18G24    30.00R
CARLSBAD       PTSUNNY   83  59  44 N8        29.94S
DRYDEN           N/A     88  66  48 SE13      29.96S
FORT STOCKTON  MOSUNNY   84  65  52 S9        29.98S
GUAD PASS      CLOUDY    71  57  61 SW23      30.12S
HOBBS          SUNNY     84  57  39 S16       29.99S
MARFA          CLOUDY    72  63  73 W10       30.13S
MIDLAND AIRPK  SUNNY     85  64  49 S15G22    29.98R
MIDLAND INTL   SUNNY     85  65  51 S13       29.97R
ODESSA         SUNNY     84  64  50 SW21      29.98S
PECOS          PTSUNNY   87  57  35 SW10      29.95S
PRESIDIO       FAIR      79  64  61 SE3       30.01S
SEMINOLE       SUNNY     85  60  41 S10       29.98S
SNYDER         SUNNY     82  66  59 S20       29.98R
WINK           PTSUNNY   83  63  50 S10       29.95R
$$
...OTHER STATIONS IN TEXAS...

CITY           SKY/WX    TMP DP  RH WIND       PRES   REMARKS
ABILENE        SUNNY     85  64  49 S20G32    29.98R
AMARILLO       SUNNY     82  65  56 S21       29.95R
AUSTIN         MOSUNNY   90  72  55 S17G23    29.98S
BROWNSVILLE    PTSUNNY   91  76  61 SE20G26   29.96R HX 103
CORPUS CHRISTI PTSUNNY   90  75  61 SE21G29   29.96R HX 100
DALLAS FTW     PTSUNNY   88  72  58 S18       29.98R
DEL RIO        PTSUNNY   84  70  62 SE14      29.94S
EL PASO        PTSUNNY   75  58  55 SW13      30.03R
HOUSTON INT    PTSUNNY   90  75  61 S8        30.00S HX 100
LUBBOCK        MOSUNNY   84  64  50 S18G24    29.97R
SAN ANGELO     MOSUNNY   83  68  60 S16G22    29.99R
SAN ANTONIO    MOSUNNY   89  71  55 S12       29.99S
WACO           MOSUNNY   88  71  57 S17       29.99R
WICHITA FALLS  NOT AVBL
$$
...OTHER LOCATIONS IN NEW MEXICO...

CITY           SKY/WX    TMP DP  RH WIND       PRES   REMARKS
ALAMAGORDO     PTSUNNY   72  55  56 SE10      30.05R
ALBUQUERQUE    PTSUNNY   73  53  49 NW6       30.12R
CANNON AFB     SUNNY     81  60  48 SW10      29.99S
CLOVIS           N/A     81  61  50 S10       30.01S
HOLLOMAN AFB   MOSUNNY   76  56  51 SE9       30.03R
ROSWELL        MOSUNNY   80  61  52 E6        29.96S
RUIDOSO        MOSUNNY   68  54  60 NW13G18   30.19S
SANTA FE       CLOUDY    67  53  61 SW7       30.14S
TRUTH OR CONSE PTSUNNY   75  54  47 NW5       30.08R
TUCUMCARI      SUNNY     85  56  37 SW10      29.93S
$$

USA.gov is the U.S. government's official web portal to all federal, state and local government web resources and services.